This demonstration page uses our WeatherBlox Daily Observations layout. Learn more.

Left ArrowRight Arrow

Hourly Observations for September 11, 2017

Temp ( °F °C ) Dew Point ( °F °C ) Humidity (%) Winds ( mph kmh ) Pressure ( in mb ) Visibility ( mi km ) Precip ( " mm )
12:54 am 00:54 Clear 68 20 57 13.9 68 68 S 8 13 30.16 1021 10 16.0934 0 0
1:54 am 01:54 Clear 66 18.9 57 13.9 73 73 S 10 17 30.14 1021 10 16.0934 0 0
2:54 am 02:54 Clear 65 18.3 57 13.9 76 76 SSE 9 15 30.14 1021 10 16.0934 0 0
3:54 am 03:54 Clear 61 16.1 56 13.3 84 84 S 7 11 30.14 1021 10 16.0934 0 0
4:54 am 04:54 Clear 60 15.6 55 12.8 84 84 S 6 9 30.14 1021 10 16.0934 0 0
5:54 am 05:54 Clear 60 15.6 55 12.8 84 84 S 6 9 30.15 1021 10 16.0934 0 0
6:54 am 06:54 Clear 59 15 55 12.8 87 87 SSE 5 7 30.16 1021 10 16.0934 0 0
7:54 am 07:54 Sunny 60 15.6 56 13.3 86 86 S 7 11 30.16 1022 9 14.48406 0 0
8:54 am 08:54 Sunny 66 18.9 56 13.3 70 70 S 6 9 30.16 1021 10 16.0934 0 0
9:54 am 09:54 Sunny 72 22.2 56 13.3 57 57 S 9 15 30.16 1021 10 16.0934 0 0
10:54 am 10:54 Sunny 78 25.6 54 12.2 43 43 SSW 15 24 30.16 1021 10 16.0934 0 0
11:54 am 11:54 Sunny 81 27.2 56 13.3 42 42 S 15 24 30.15 1021 10 16.0934 0 0
12:54 pm 12:54 Sunny 83 28.3 56 13.3 40 40 SW 9 15 30.14 1021 10 16.0934 0 0
1:54 pm 13:54 Sunny 84 28.9 56 13.3 38 38 S 8 13 30.12 1020 10 16.0934 0 0
2:54 pm 14:54 Sunny 86 30 57 13.9 37 37 S 12 19 30.09 1019 10 16.0934 0 0
3:54 pm 15:54 Sunny 86 30 55 12.8 35 35 S 10 17 30.08 1019 10 16.0934 0 0
4:54 pm 16:54 Sunny 86 30 56 13.3 36 36 SSW 6 9 30.07 1018 10 16.0934 0 0
5:54 pm 17:54 Sunny 85 29.4 58 14.4 40 40 SSE 3 6 30.06 1018 10 16.0934 0 0
6:54 pm 18:54 Sunny 82 27.8 56 13.3 41 41 SE 6 9 30.06 1018 10 16.0934 0 0
7:54 pm 19:54 Clear 78 25.6 58 14.4 50 50 ESE 6 9 30.06 1018 10 16.0934 0 0
8:54 pm 20:54 Clear 76 24.4 59 15 56 56 SE 8 13 30.07 1018 10 16.0934 0 0
9:54 pm 21:54 Clear 72 22.2 59 15 64 64 SSE 6 9 30.06 1018 10 16.0934 0 0
10:54 pm 22:54 Clear 70 21.1 58 14.4 66 66 S 6 9 30.07 1018 10 16.0934 0 0
11:54 pm 23:54 Clear 68 20 58 14.4 70 70 S 3 6 30.07 1018 10 16.0934 0 0

Powered by AerisWeather